����������;��������(kWh)
2015-10-05 00:00;67,45
2015-10-05 00:15;68,3
2015-10-05 00:30;68,15
2015-10-05 00:45;65,7
2015-10-05 01:00;69,65
2015-10-05 01:15;72,05
2015-10-05 01:30;74,1
2015-10-05 01:45;70,05
2015-10-05 02:00;64,7
2015-10-05 02:15;64,15
2015-10-05 02:30;64,7
2015-10-05 02:45;65,25
2015-10-05 03:00;63,9
2015-10-05 03:15;65
2015-10-05 03:30;64,45
2015-10-05 03:45;65,8
2015-10-05 04:00;64,5
2015-10-05 04:15;67,75
2015-10-05 04:30;74,5
2015-10-05 04:45;74
2015-10-05 05:00;77,6
2015-10-05 05:15;76,95
2015-10-05 05:30;78,15
2015-10-05 05:45;81,85
2015-10-05 06:00;81,85
2015-10-05 06:15;83,35
2015-10-05 06:30;85,15
2015-10-05 06:45;82,45
2015-10-05 07:00;80,3
2015-10-05 07:15;80,6
2015-10-05 07:30;78,35
2015-10-05 07:45;85,25
2015-10-05 08:00;141
2015-10-05 08:15;148,7
2015-10-05 08:30;118,25
2015-10-05 08:45;107,3
2015-10-05 09:00;116,95
2015-10-05 09:15;122,1
2015-10-05 09:30;140,2
2015-10-05 09:45;126,05
2015-10-05 10:00;143,4
2015-10-05 10:15;141,45
2015-10-05 10:30;155,5
2015-10-05 10:45;163,4
2015-10-05 11:00;149,95
2015-10-05 11:15;167,75
2015-10-05 11:30;165,35
2015-10-05 11:45;158,4
2015-10-05 12:00;174,05
2015-10-05 12:15;175,15
2015-10-05 12:30;184,8
2015-10-05 12:45;182,25
2015-10-05 13:00;184,5
2015-10-05 13:15;187,7
2015-10-05 13:30;182,25
2015-10-05 13:45;182,35
2015-10-05 14:00;190,7
2015-10-05 14:15;187,7
2015-10-05 14:30;178,4
2015-10-05 14:45;178,75
2015-10-05 15:00;165,35
2015-10-05 15:15;158,25
2015-10-05 15:30;157
2015-10-05 15:45;140,15
2015-10-05 16:00;145
2015-10-05 16:15;141,3
2015-10-05 16:30;131,4
2015-10-05 16:45;134,2
2015-10-05 17:00;133
2015-10-05 17:15;121,25
2015-10-05 17:30;114,5
2015-10-05 17:45;118,7
2015-10-05 18:00;117,45
2015-10-05 18:15;118,55
2015-10-05 18:30;112,4
2015-10-05 18:45;113
2015-10-05 19:00;111,1
2015-10-05 19:15;114,3
2015-10-05 19:30;113,25
2015-10-05 19:45;109,9
2015-10-05 20:00;109,6
2015-10-05 20:15;103,15
2015-10-05 20:30;105,85
2015-10-05 20:45;104,1
2015-10-05 21:00;96,6
2015-10-05 21:15;94,3
2015-10-05 21:30;93,2
2015-10-05 21:45;92,8
2015-10-05 22:00;93,15
2015-10-05 22:15;88,8
2015-10-05 22:30;87,1
2015-10-05 22:45;86,85
2015-10-05 23:00;79,4
2015-10-05 23:15;78,15
2015-10-05 23:30;75,35
2015-10-05 23:45;73
2015-10-06 00:00;72,9
2015-10-06 00:15;72,2
2015-10-06 00:30;72,95
2015-10-06 00:45;72,2
2015-10-06 01:00;70,3
2015-10-06 01:15;71,35
2015-10-06 01:30;71,6
2015-10-06 01:45;73,7
2015-10-06 02:00;70,95
2015-10-06 02:15;70,75
2015-10-06 02:30;70,6
2015-10-06 02:45;70,85
2015-10-06 03:00;70,2
2015-10-06 03:15;70,15
2015-10-06 03:30;69,75
2015-10-06 03:45;71,35
2015-10-06 04:00;70
2015-10-06 04:15;69,9
2015-10-06 04:30;69,15
2015-10-06 04:45;68,35
2015-10-06 05:00;70
2015-10-06 05:15;68,3
2015-10-06 05:30;69,6
2015-10-06 05:45;67,95
2015-10-06 06:00;72,95
2015-10-06 06:15;71,2
2015-10-06 06:30;78,05
2015-10-06 06:45;76,35
2015-10-06 07:00;77,05
2015-10-06 07:15;80,35
2015-10-06 07:30;81,55
2015-10-06 07:45;91,8
2015-10-06 08:00;143,5
2015-10-06 08:15;130,95
2015-10-06 08:30;99
2015-10-06 08:45;109,3
2015-10-06 09:00;104,7
2015-10-06 09:15;123,9
2015-10-06 09:30;118,5
2015-10-06 09:45;128,85
2015-10-06 10:00;125,25
2015-10-06 10:15;136,35
2015-10-06 10:30;151,25
2015-10-06 10:45;144,7
2015-10-06 11:00;153,75
2015-10-06 11:15;165,4
2015-10-06 11:30;160,75
2015-10-06 11:45;158,45
2015-10-06 12:00;164,75
2015-10-06 12:15;156,6
2015-10-06 12:30;169,8
2015-10-06 12:45;154,75
2015-10-06 13:00;165,7
2015-10-06 13:15;159,05
2015-10-06 13:30;176,1
2015-10-06 13:45;174,85
2015-10-06 14:00;175,55
2015-10-06 14:15;173,65
2015-10-06 14:30;173,15
2015-10-06 14:45;170,2
2015-10-06 15:00;175,3
2015-10-06 15:15;165,1
2015-10-06 15:30;156,7
2015-10-06 15:45;151
2015-10-06 16:00;149,05
2015-10-06 16:15;127,6
2015-10-06 16:30;131,3
2015-10-06 16:45;128,85
2015-10-06 17:00;139,1
2015-10-06 17:15;122,55
2015-10-06 17:30;116,8
2015-10-06 17:45;117,15
2015-10-06 18:00;131,05
2015-10-06 18:15;123,15
2015-10-06 18:30;118,1
2015-10-06 18:45;111
2015-10-06 19:00;104,85
2015-10-06 19:15;106,35
2015-10-06 19:30;106,2
2015-10-06 19:45;108,8
2015-10-06 20:00;109,7
2015-10-06 20:15;104,6
2015-10-06 20:30;98
2015-10-06 20:45;95,6
2015-10-06 21:00;90,85
2015-10-06 21:15;86,65
2015-10-06 21:30;90,65
2015-10-06 21:45;85,85
2015-10-06 22:00;83,5
2015-10-06 22:15;81,9
2015-10-06 22:30;82,05
2015-10-06 22:45;80,85
2015-10-06 23:00;78,95
2015-10-06 23:15;77,1
2015-10-06 23:30;76,45
2015-10-06 23:45;77,05
2015-10-07 00:00;76,25
2015-10-07 00:15;74,2
2015-10-07 00:30;80,15
2015-10-07 00:45;81,95
2015-10-07 01:00;79,45
2015-10-07 01:15;74,2
2015-10-07 01:30;72,25
2015-10-07 01:45;74,15
2015-10-07 02:00;72,4
2015-10-07 02:15;72,45
2015-10-07 02:30;72,25
2015-10-07 02:45;71,85
2015-10-07 03:00;70,8
2015-10-07 03:15;71,55
2015-10-07 03:30;72
2015-10-07 03:45;72,05
2015-10-07 04:00;71,5
2015-10-07 04:15;70,95
2015-10-07 04:30;70,5
2015-10-07 04:45;70,4
2015-10-07 05:00;71,25
2015-10-07 05:15;71,8
2015-10-07 05:30;71,1
2015-10-07 05:45;75,5
2015-10-07 06:00;72,65
2015-10-07 06:15;74,95
2015-10-07 06:30;79,3
2015-10-07 06:45;79,6
2015-10-07 07:00;79,3
2015-10-07 07:15;76,3
2015-10-07 07:30;75,7
2015-10-07 07:45;83,15
2015-10-07 08:00;144,35
2015-10-07 08:15;138,9
2015-10-07 08:30;103,65
2015-10-07 08:45;111,9
2015-10-07 09:00;107,4
2015-10-07 09:15;134,4
2015-10-07 09:30;133,25
2015-10-07 09:45;143,5
2015-10-07 10:00;129,9
2015-10-07 10:15;135,55
2015-10-07 10:30;146,45
2015-10-07 10:45;148,4
2015-10-07 11:00;153,25
2015-10-07 11:15;161,35
2015-10-07 11:30;200,3
2015-10-07 11:45;195,45
2015-10-07 12:00;194,25
2015-10-07 12:15;184,7
2015-10-07 12:30;184,9
2015-10-07 12:45;204,75
2015-10-07 13:00;194,85
2015-10-07 13:15;191,6
2015-10-07 13:30;192,1
2015-10-07 13:45;185,2
2015-10-07 14:00;191,6
2015-10-07 14:15;185,95
2015-10-07 14:30;172,85
2015-10-07 14:45;181,1
2015-10-07 15:00;179,6
2015-10-07 15:15;179
2015-10-07 15:30;173
2015-10-07 15:45;160
2015-10-07 16:00;159,35
2015-10-07 16:15;148,75
2015-10-07 16:30;154,15
2015-10-07 16:45;162,2
2015-10-07 17:00;147,45
2015-10-07 17:15;142,9
2015-10-07 17:30;146,1
2015-10-07 17:45;128,3
2015-10-07 18:00;125,8
2015-10-07 18:15;124,5
2015-10-07 18:30;115,6
2015-10-07 18:45;115,55
2015-10-07 19:00;113,2
2015-10-07 19:15;116,85
2015-10-07 19:30;115,8
2015-10-07 19:45;112,3
2015-10-07 20:00;111,65
2015-10-07 20:15;106,05
2015-10-07 20:30;104,5
2015-10-07 20:45;104
2015-10-07 21:00;100,9
2015-10-07 21:15;108,15
2015-10-07 21:30;108,35
2015-10-07 21:45;102
2015-10-07 22:00;92,6
2015-10-07 22:15;87,15
2015-10-07 22:30;86,75
2015-10-07 22:45;84,1
2015-10-07 23:00;83,9
2015-10-07 23:15;81,5
2015-10-07 23:30;78,1
2015-10-07 23:45;77,4
2015-10-08 00:00;77,5
2015-10-08 00:15;76,75
2015-10-08 00:30;75,45
2015-10-08 00:45;76,95
2015-10-08 01:00;77,3
2015-10-08 01:15;78,85
2015-10-08 01:30;77,45
2015-10-08 01:45;76,15
2015-10-08 02:00;76,6
2015-10-08 02:15;76
2015-10-08 02:30;75,15
2015-10-08 02:45;76,45
2015-10-08 03:00;75,65
2015-10-08 03:15;78
2015-10-08 03:30;74,95
2015-10-08 03:45;74,4
2015-10-08 04:00;75
2015-10-08 04:15;74,5
2015-10-08 04:30;74,8
2015-10-08 04:45;73,85
2015-10-08 05:00;73,5
2015-10-08 05:15;76,6
2015-10-08 05:30;79,5
2015-10-08 05:45;79,95
2015-10-08 06:00;78,45
2015-10-08 06:15;80,25
2015-10-08 06:30;81,6
2015-10-08 06:45;81,6
2015-10-08 07:00;80,6
2015-10-08 07:15;81,45
2015-10-08 07:30;80,45
2015-10-08 07:45;85,55
2015-10-08 08:00;144,9
2015-10-08 08:15;142,25
2015-10-08 08:30;101,6
2015-10-08 08:45;116,8
2015-10-08 09:00;116,7
2015-10-08 09:15;124,95
2015-10-08 09:30;137,35
2015-10-08 09:45;143,45
2015-10-08 10:00;137,05
2015-10-08 10:15;148,1
2015-10-08 10:30;143,65
2015-10-08 10:45;147,15
2015-10-08 11:00;156,4
2015-10-08 11:15;160,75
2015-10-08 11:30;168,8
2015-10-08 11:45;182,65
2015-10-08 12:00;184,2
2015-10-08 12:15;172,95
2015-10-08 12:30;184,7
2015-10-08 12:45;185,45
2015-10-08 13:00;186,6
2015-10-08 13:15;192,5
2015-10-08 13:30;200,75
2015-10-08 13:45;210,35
2015-10-08 14:00;203,6
2015-10-08 14:15;202,95
2015-10-08 14:30;200,15
2015-10-08 14:45;195,25
2015-10-08 15:00;191,75
2015-10-08 15:15;176,75
2015-10-08 15:30;128,2
2015-10-08 15:45;141,45
2015-10-08 16:00;143,2
2015-10-08 16:15;140,05
2015-10-08 16:30;137,4
2015-10-08 16:45;134,9
2015-10-08 17:00;127,7
2015-10-08 17:15;115,75
2015-10-08 17:30;117,8
2015-10-08 17:45;120,15
2015-10-08 18:00;118,65
2015-10-08 18:15;115,75
2015-10-08 18:30;112,35
2015-10-08 18:45;110,8
2015-10-08 19:00;117,95
2015-10-08 19:15;122,45
2015-10-08 19:30;118,2
2015-10-08 19:45;114,55
2015-10-08 20:00;101,4
2015-10-08 20:15;97,4
2015-10-08 20:30;94,85
2015-10-08 20:45;96,1
2015-10-08 21:00;91,5
2015-10-08 21:15;88,85
2015-10-08 21:30;87,05
2015-10-08 21:45;84,7
2015-10-08 22:00;80,15
2015-10-08 22:15;78,75
2015-10-08 22:30;78,35
2015-10-08 22:45;76,55
2015-10-08 23:00;77,05
2015-10-08 23:15;76,1
2015-10-08 23:30;76,35
2015-10-08 23:45;73,35
2015-10-09 00:00;72,7
2015-10-09 00:15;76,45
2015-10-09 00:30;78,6
2015-10-09 00:45;79,6
2015-10-09 01:00;76,6
2015-10-09 01:15;72
2015-10-09 01:30;71,55
2015-10-09 01:45;68,85
2015-10-09 02:00;70,4
2015-10-09 02:15;69,65
2015-10-09 02:30;68,95
2015-10-09 02:45;69,3
2015-10-09 03:00;68,75
2015-10-09 03:15;69,8
2015-10-09 03:30;69,2
2015-10-09 03:45;67,45
2015-10-09 04:00;68,95
2015-10-09 04:15;67,75
2015-10-09 04:30;68,9
2015-10-09 04:45;67,55
2015-10-09 05:00;66,9
2015-10-09 05:15;67,45
2015-10-09 05:30;67,15
2015-10-09 05:45;69,55
2015-10-09 06:00;70,1
2015-10-09 06:15;72,8
2015-10-09 06:30;76,75
2015-10-09 06:45;75,3
2015-10-09 07:00;76,6
2015-10-09 07:15;75,25
2015-10-09 07:30;75,7
2015-10-09 07:45;80,9
2015-10-09 08:00;133,15
2015-10-09 08:15;125,15
2015-10-09 08:30;88,7
2015-10-09 08:45;110,4
2015-10-09 09:00;101,8
2015-10-09 09:15;117,8
2015-10-09 09:30;124,3
2015-10-09 09:45;120,95
2015-10-09 10:00;138,2
2015-10-09 10:15;140,75
2015-10-09 10:30;148,8
2015-10-09 10:45;168,05
2015-10-09 11:00;158,95
2015-10-09 11:15;161,95
2015-10-09 11:30;158,6
2015-10-09 11:45;162,55
2015-10-09 12:00;164,35
2015-10-09 12:15;168,95
2015-10-09 12:30;166,2
2015-10-09 12:45;169,95
2015-10-09 13:00;176,55
2015-10-09 13:15;167,65
2015-10-09 13:30;175,15
2015-10-09 13:45;202
2015-10-09 14:00;197,15
2015-10-09 14:15;178,45
2015-10-09 14:30;181,1
2015-10-09 14:45;184,7
2015-10-09 15:00;178,3
2015-10-09 15:15;184,15
2015-10-09 15:30;185
2015-10-09 15:45;166,25
2015-10-09 16:00;159,6
2015-10-09 16:15;146,5
2015-10-09 16:30;143,8
2015-10-09 16:45;137,4
2015-10-09 17:00;137,05
2015-10-09 17:15;132,8
2015-10-09 17:30;132,75
2015-10-09 17:45;125,65
2015-10-09 18:00;119,25
2015-10-09 18:15;118,05
2015-10-09 18:30;120,35
2015-10-09 18:45;118,5
2015-10-09 19:00;112,75
2015-10-09 19:15;114
2015-10-09 19:30;116,65
2015-10-09 19:45;125,2
2015-10-09 20:00;121,5
2015-10-09 20:15;112,55
2015-10-09 20:30;105,85
2015-10-09 20:45;105,4
2015-10-09 21:00;104,9
2015-10-09 21:15;93,3
2015-10-09 21:30;94,5
2015-10-09 21:45;97,2
2015-10-09 22:00;93,3
2015-10-09 22:15;88,1
2015-10-09 22:30;89,2
2015-10-09 22:45;90,85
2015-10-09 23:00;87,15
2015-10-09 23:15;84,3
2015-10-09 23:30;86,9
2015-10-09 23:45;83,45
2015-10-10 00:00;81,2
2015-10-10 00:15;81,95
2015-10-10 00:30;91,25
2015-10-10 00:45;86,5
2015-10-10 01:00;85,15
2015-10-10 01:15;81,4
2015-10-10 01:30;79,4
2015-10-10 01:45;77,25
2015-10-10 02:00;78
2015-10-10 02:15;81,8
2015-10-10 02:30;76,45
2015-10-10 02:45;77,65
2015-10-10 03:00;79,9
2015-10-10 03:15;78,2
2015-10-10 03:30;76,55
2015-10-10 03:45;76,75
2015-10-10 04:00;80,55
2015-10-10 04:15;77,55
2015-10-10 04:30;76
2015-10-10 04:45;75,5
2015-10-10 05:00;78,55
2015-10-10 05:15;77
2015-10-10 05:30;77
2015-10-10 05:45;75,95
2015-10-10 06:00;77,1
2015-10-10 06:15;79,35
2015-10-10 06:30;83,9
2015-10-10 06:45;85,45
2015-10-10 07:00;84,35
2015-10-10 07:15;84,3
2015-10-10 07:30;80,6
2015-10-10 07:45;76,65
2015-10-10 08:00;77,75
2015-10-10 08:15;81,95
2015-10-10 08:30;78,7
2015-10-10 08:45;78,55
2015-10-10 09:00;74,7
2015-10-10 09:15;77,55
2015-10-10 09:30;76,9
2015-10-10 09:45;110,1
2015-10-10 10:00;111,9
2015-10-10 10:15;101,8
2015-10-10 10:30;83,85
2015-10-10 10:45;100,95
2015-10-10 11:00;84,55
2015-10-10 11:15;92,55
2015-10-10 11:30;86,7
2015-10-10 11:45;88,15
2015-10-10 12:00;80,45
2015-10-10 12:15;87,55
2015-10-10 12:30;82,3
2015-10-10 12:45;86,5
2015-10-10 13:00;85,7
2015-10-10 13:15;79,4
2015-10-10 13:30;91,9
2015-10-10 13:45;88,75
2015-10-10 14:00;86,25
2015-10-10 14:15;83,3
2015-10-10 14:30;79,65
2015-10-10 14:45;73,75
2015-10-10 15:00;76,5
2015-10-10 15:15;77,5
2015-10-10 15:30;75,65
2015-10-10 15:45;73,7
2015-10-10 16:00;75,5
2015-10-10 16:15;73,75
2015-10-10 16:30;76,05
2015-10-10 16:45;78
2015-10-10 17:00;74,85
2015-10-10 17:15;74,65
2015-10-10 17:30;76,15
2015-10-10 17:45;75,55
2015-10-10 18:00;78,15
2015-10-10 18:15;77,75
2015-10-10 18:30;76,3
2015-10-10 18:45;75,75
2015-10-10 19:00;78,4
2015-10-10 19:15;83,1
2015-10-10 19:30;85,4
2015-10-10 19:45;87,75
2015-10-10 20:00;91,1
2015-10-10 20:15;95,9
2015-10-10 20:30;92,3
2015-10-10 20:45;81,65
2015-10-10 21:00;87,9
2015-10-10 21:15;82,75
2015-10-10 21:30;85,65
2015-10-10 21:45;83,05
2015-10-10 22:00;76,65
2015-10-10 22:15;77
2015-10-10 22:30;74,15
2015-10-10 22:45;76,3
2015-10-10 23:00;76,4
2015-10-10 23:15;76,65
2015-10-10 23:30;77,6
2015-10-10 23:45;76,4
2015-10-11 00:00;75,95
2015-10-11 00:15;73,55
2015-10-11 00:30;72,3
2015-10-11 00:45;71,3
2015-10-11 01:00;72,7
2015-10-11 01:15;70,5
2015-10-11 01:30;71,2
2015-10-11 01:45;70,65
2015-10-11 02:00;70,9
2015-10-11 02:15;69,8
2015-10-11 02:30;70,05
2015-10-11 02:45;70,6
2015-10-11 03:00;69,3
2015-10-11 03:15;70,9
2015-10-11 03:30;68,45
2015-10-11 03:45;69,7
2015-10-11 04:00;70,9
2015-10-11 04:15;68,3
2015-10-11 04:30;69,4
2015-10-11 04:45;71
2015-10-11 05:00;69,35
2015-10-11 05:15;68,8
2015-10-11 05:30;71,35
2015-10-11 05:45;70,7
2015-10-11 06:00;71,55
2015-10-11 06:15;71,45
2015-10-11 06:30;77,55
2015-10-11 06:45;79,3
2015-10-11 07:00;78,8
2015-10-11 07:15;80,8
2015-10-11 07:30;76,15
2015-10-11 07:45;73,7
2015-10-11 08:00;73,75
2015-10-11 08:15;75,35
2015-10-11 08:30;72,7
2015-10-11 08:45;69,6
2015-10-11 09:00;71,4
2015-10-11 09:15;73,65
2015-10-11 09:30;72,4
2015-10-11 09:45;70,65
2015-10-11 10:00;73,9
2015-10-11 10:15;74,5
2015-10-11 10:30;75,45
2015-10-11 10:45;71,8
2015-10-11 11:00;73,35
2015-10-11 11:15;78,9
2015-10-11 11:30;76,9
2015-10-11 11:45;77,3
2015-10-11 12:00;75,75
2015-10-11 12:15;76,6
2015-10-11 12:30;78,8
2015-10-11 12:45;77,5
2015-10-11 13:00;80,2
2015-10-11 13:15;77,1
2015-10-11 13:30;78,6
2015-10-11 13:45;79,4
2015-10-11 14:00;78,6
2015-10-11 14:15;82,05
2015-10-11 14:30;79,85
2015-10-11 14:45;82,1
2015-10-11 15:00;85,45
2015-10-11 15:15;82,35
2015-10-11 15:30;88,45
2015-10-11 15:45;85,15
2015-10-11 16:00;84,2
2015-10-11 16:15;80,35
2015-10-11 16:30;83,9
2015-10-11 16:45;86,3
2015-10-11 17:00;86,8
2015-10-11 17:15;81,85
2015-10-11 17:30;83,1
2015-10-11 17:45;84,3
2015-10-11 18:00;85,4
2015-10-11 18:15;85,4
2015-10-11 18:30;87,3
2015-10-11 18:45;88
2015-10-11 19:00;88,95
2015-10-11 19:15;86,7
2015-10-11 19:30;85,25
2015-10-11 19:45;84,25
2015-10-11 20:00;82,8
2015-10-11 20:15;85,45
2015-10-11 20:30;80,7
2015-10-11 20:45;82,2
2015-10-11 21:00;77,75
2015-10-11 21:15;82,75
2015-10-11 21:30;87,15
2015-10-11 21:45;83,75
2015-10-11 22:00;79,2
2015-10-11 22:15;78
2015-10-11 22:30;79,2
2015-10-11 22:45;81,6
2015-10-11 23:00;83,65
2015-10-11 23:15;80,8
2015-10-11 23:30;76,4
2015-10-11 23:45;75,1

